TimeCST,TemperatureF,Dew PointF,Humidity,Sea Level PressureIn,VisibilityMPH,Wind Direction,Wind SpeedMPH,Gust SpeedMPH,PrecipitationIn,Events,Conditions,WindDirDegrees,DateUTC
12:16 AM,-9.4,-13.0,84,30.36,10.0,Calm,Calm,-,N/A,,Mostly Cloudy,0,2014-02-06 06:16:00
12:36 AM,-9.4,-14.8,77,30.35,10.0,Calm,Calm,-,N/A,,Mostly Cloudy,0,2014-02-06 06:36:00
12:55 AM,-11.2,-14.8,84,30.35,10.0,Calm,Calm,-,N/A,,Scattered Clouds,0,2014-02-06 06:55:00
1:15 AM,-13.0,-16.6,84,30.34,10.0,Calm,Calm,-,N/A,,Scattered Clouds,0,2014-02-06 07:15:00
1:36 AM,-14.8,-18.4,84,30.33,10.0,WSW,3.5,-,N/A,,Overcast,240,2014-02-06 07:36:00
1:56 AM,-16.6,-20.2,84,30.33,10.0,Calm,Calm,-,N/A,,Scattered Clouds,0,2014-02-06 07:56:00
2:16 AM,-16.6,-20.2,84,30.32,10.0,Calm,Calm,-,N/A,,Clear,0,2014-02-06 08:16:00
2:36 AM,-18.4,-23.8,76,30.32,10.0,Calm,Calm,-,N/A,,Clear,0,2014-02-06 08:36:00
2:55 AM,-18.4,-23.8,76,30.31,10.0,Calm,Calm,-,N/A,,Clear,0,2014-02-06 08:55:00
3:16 AM,-18.4,-23.8,76,30.30,10.0,WSW,3.5,-,N/A,,Clear,250,2014-02-06 09:16:00
3:36 AM,-18.4,-23.8,76,30.30,10.0,WSW,3.5,-,N/A,,Clear,250,2014-02-06 09:36:00
3:56 AM,-18.4,-23.8,76,30.29,10.0,Calm,Calm,-,N/A,,Clear,0,2014-02-06 09:56:00
4:16 AM,-18.4,-23.8,76,30.29,10.0,Calm,Calm,-,N/A,,Clear,0,2014-02-06 10:16:00
4:36 AM,-20.2,-25.6,76,30.28,10.0,SW,3.5,-,N/A,,Clear,230,2014-02-06 10:36:00
4:56 AM,-20.2,-25.6,76,30.29,10.0,WSW,3.5,-,N/A,,Clear,240,2014-02-06 10:56:00
5:16 AM,-20.2,-25.6,76,30.28,10.0,WSW,3.5,-,N/A,,Clear,240,2014-02-06 11:16:00
5:36 AM,-16.6,-20.2,84,30.28,10.0,WSW,4.6,-,N/A,,Clear,240,2014-02-06 11:36:00
5:56 AM,-18.4,-23.8,76,30.27,10.0,WSW,4.6,-,N/A,,Clear,240,2014-02-06 11:56:00
6:16 AM,-16.6,-20.2,84,30.27,10.0,WSW,4.6,-,N/A,,Clear,240,2014-02-06 12:16:00
6:36 AM,-16.6,-20.2,84,30.26,10.0,WSW,3.5,-,N/A,,Clear,240,2014-02-06 12:36:00
6:56 AM,-18.4,-23.8,76,30.25,10.0,SW,3.5,-,N/A,,Clear,230,2014-02-06 12:56:00
7:16 AM,-16.6,-20.2,84,30.25,10.0,WSW,4.6,-,N/A,,Clear,240,2014-02-06 13:16:00
7:36 AM,-14.8,-20.2,77,30.24,10.0,WSW,4.6,-,N/A,,Clear,240,2014-02-06 13:36:00
7:56 AM,-14.8,-20.2,77,30.24,10.0,WSW,4.6,-,N/A,,Clear,240,2014-02-06 13:56:00
8:16 AM,-14.8,-20.2,77,30.24,10.0,WSW,5.8,-,N/A,,Clear,240,2014-02-06 14:16:00
8:36 AM,-13.0,-18.4,77,30.24,10.0,WSW,5.8,-,N/A,,Clear,240,2014-02-06 14:36:00
8:56 AM,-11.2,-16.6,77,30.23,10.0,WSW,4.6,-,N/A,,Clear,240,2014-02-06 14:56:00
9:16 AM,-9.4,-14.8,77,30.23,10.0,WSW,8.1,-,N/A,,Clear,240,2014-02-06 15:16:00
9:36 AM,-9.4,-14.8,77,30.22,10.0,SW,9.2,-,N/A,,Clear,230,2014-02-06 15:36:00
9:56 AM,-7.6,-13.0,77,30.21,10.0,SW,10.4,-,N/A,,Clear,230,2014-02-06 15:56:00
10:16 AM,-7.6,-11.2,84,30.21,10.0,WSW,9.2,-,N/A,,Clear,250,2014-02-06 16:16:00
10:36 AM,-5.8,-13.0,71,30.21,10.0,SW,10.4,-,N/A,,Clear,230,2014-02-06 16:36:00
10:56 AM,-5.8,-11.2,77,30.21,10.0,WSW,5.8,-,N/A,,Clear,240,2014-02-06 16:56:00
11:16 AM,-2.2,-11.2,66,30.20,10.0,West,11.5,-,N/A,,Clear,260,2014-02-06 17:16:00
11:36 AM,-2.2,-11.2,66,30.19,10.0,West,8.1,-,N/A,,Clear,260,2014-02-06 17:36:00
11:56 AM,-0.4,-11.2,60,30.18,10.0,SW,8.1,-,N/A,,Clear,230,2014-02-06 17:56:00
12:16 PM,-0.4,-9.4,66,30.17,10.0,SW,9.2,-,N/A,,Clear,220,2014-02-06 18:16:00
12:36 PM,1.4,-9.4,61,30.16,10.0,SW,8.1,-,N/A,,Mostly Cloudy,230,2014-02-06 18:36:00
12:56 PM,1.4,-9.4,61,30.15,10.0,SW,9.2,-,N/A,,Overcast,230,2014-02-06 18:56:00
1:16 PM,1.4,-9.4,61,30.14,10.0,SW,9.2,-,N/A,,Mostly Cloudy,230,2014-02-06 19:16:00
1:36 PM,3.2,-7.6,61,30.13,10.0,SW,10.4,-,N/A,,Scattered Clouds,220,2014-02-06 19:36:00
1:56 PM,5.0,-7.6,56,30.13,10.0,SW,9.2,-,N/A,,Clear,230,2014-02-06 19:56:00
2:16 PM,5.0,-7.6,56,30.12,10.0,SW,9.2,-,N/A,,Scattered Clouds,220,2014-02-06 20:16:00
2:36 PM,5.0,-7.6,56,30.12,10.0,SW,8.1,-,N/A,,Scattered Clouds,230,2014-02-06 20:36:00
2:56 PM,5.0,-7.6,56,30.12,10.0,SW,9.2,-,N/A,,Scattered Clouds,220,2014-02-06 20:56:00
3:16 PM,6.8,-7.6,52,30.11,10.0,SW,10.4,-,N/A,,Mostly Cloudy,230,2014-02-06 21:16:00
3:36 PM,6.8,-5.8,56,30.11,10.0,West,10.4,-,N/A,,Mostly Cloudy,260,2014-02-06 21:36:00
3:56 PM,5.0,-5.8,61,30.11,10.0,SW,8.1,-,N/A,,Overcast,230,2014-02-06 21:56:00
4:16 PM,5.0,-5.8,61,30.10,10.0,SW,9.2,-,N/A,,Overcast,230,2014-02-06 22:16:00
4:36 PM,3.2,-5.8,66,30.10,10.0,SW,8.1,-,N/A,,Overcast,230,2014-02-06 22:36:00
5:04 PM,3.2,-5.8,66,30.10,10.0,SW,11.5,-,N/A,,Scattered Clouds,230,2014-02-06 23:04:00
5:16 PM,3.2,-5.8,66,30.09,10.0,WSW,6.9,-,N/A,,Scattered Clouds,240,2014-02-06 23:16:00
5:36 PM,1.4,-5.8,72,30.09,10.0,WSW,8.1,-,N/A,,Clear,240,2014-02-06 23:36:00
5:56 PM,1.4,-5.8,72,30.09,10.0,WSW,6.9,-,N/A,,Clear,240,2014-02-06 23:56:00
6:16 PM,1.4,-7.6,66,30.09,10.0,SW,6.9,-,N/A,,Scattered Clouds,230,2014-02-07 00:16:00
6:36 PM,-0.4,-5.8,78,30.08,10.0,WSW,5.8,-,N/A,,Scattered Clouds,240,2014-02-07 00:36:00
6:56 PM,-0.4,-7.6,72,30.07,10.0,SW,6.9,-,N/A,,Clear,230,2014-02-07 00:56:00
7:16 PM,-0.4,-5.8,78,30.07,7.0,SW,4.6,-,N/A,,Scattered Clouds,230,2014-02-07 01:16:00
7:36 PM,-2.2,-7.6,78,30.07,10.0,SW,5.8,-,N/A,,Scattered Clouds,220,2014-02-07 01:36:00
7:56 PM,-2.2,-7.6,78,30.05,10.0,SW,4.6,-,N/A,,Clear,220,2014-02-07 01:56:00
8:16 PM,-2.2,-7.6,78,30.05,10.0,SW,5.8,-,N/A,,Clear,220,2014-02-07 02:16:00
8:36 PM,-2.2,-7.6,78,30.05,10.0,SW,5.8,-,N/A,,Clear,220,2014-02-07 02:36:00
8:56 PM,-2.2,-7.6,78,30.04,10.0,SW,6.9,-,N/A,,Clear,220,2014-02-07 02:56:00
9:16 PM,-2.2,-5.8,85,30.04,10.0,SW,5.8,-,N/A,,Scattered Clouds,220,2014-02-07 03:16:00
9:36 PM,-4.0,-7.6,85,30.03,10.0,SW,5.8,-,N/A,,Scattered Clouds,220,2014-02-07 03:36:00
9:56 PM,-4.0,-7.6,85,30.02,10.0,SW,5.8,-,N/A,,Scattered Clouds,220,2014-02-07 03:56:00
10:16 PM,-2.2,-5.8,85,30.02,10.0,SW,4.6,-,N/A,,Mostly Cloudy,230,2014-02-07 04:16:00
10:36 PM,-2.2,-5.8,85,30.01,10.0,WSW,6.9,-,N/A,,Scattered Clouds,240,2014-02-07 04:36:00
10:56 PM,-2.2,-5.8,85,30.01,10.0,WSW,6.9,-,N/A,,Clear,240,2014-02-07 04:56:00
11:16 PM,-2.2,-5.8,85,30.00,10.0,WSW,8.1,-,N/A,,Clear,240,2014-02-07 05:16:00
11:36 PM,-2.2,-5.8,85,30.00,10.0,WSW,6.9,-,N/A,,Clear,240,2014-02-07 05:36:00
11:56 PM,-2.2,-7.6,78,29.99,10.0,SW,5.8,-,N/A,Snow,Light Snow,230,2014-02-07 05:56:00